Simultaneous Nadir Overpasses (SNOs) Predictions

Prediction of SNOs between NPP and TERRA Satellite Orbit:

Table of predicted SNOs for the next 14.0 days since TLE Epoch: 7/31/2016
Index Date (NPP) Time (NPP) Lat,Lon (NPP) SZA (NPP ) Date (TERRA) Time (TERRA) Lat,Lon (TERRA) SZA (TERRA ) Distance(km) Time Diff (sec)
1 08/01/2016 02:56:53 -68.43, -45.48 129.58 08/01/2016 02:57:39 -68.43, -45.51 129.59 1.51 46
2 08/01/2016 03:47:37 68.32, 121.98 50.32 08/01/2016 03:47:06 68.30, 121.99 50.30 1.88 31
3 08/01/2016 04:38:00 -67.20, -69.33 130.82 08/01/2016 04:36:53 -67.26, -71.58 130.71 96.79 67
4 08/03/2016 18:23:18 69.23, -98.10 51.94 08/03/2016 18:24:26 69.12, -96.38 51.79 68.89 68
5 08/03/2016 19:13:46 -68.38, 70.36 128.93 08/03/2016 19:14:07 -68.41, 70.36 128.90 3.58 21
6 08/03/2016 20:04:30 68.27,-122.19 50.97 08/03/2016 20:03:34 68.29,-122.14 50.99 2.82 56
7 08/06/2016 10:39:58 68.49, 18.68 51.90 08/06/2016 10:41:05 68.49, 18.71 51.90 1.44 67
8 08/06/2016 11:30:39 -68.34,-173.80 128.25 08/06/2016 11:30:36 -68.34,-173.84 128.25 1.76 3
9 08/06/2016 12:21:18 67.96, -6.02 51.37 08/06/2016 12:20:06 68.05, -6.54 51.48 24.14 72
10 08/09/2016 02:56:50 68.45, 134.51 52.61 08/09/2016 02:57:33 68.42, 134.50 52.58 3.34 43
11 08/09/2016 03:47:32 -68.34, -58.04 127.49 08/09/2016 03:47:03 -68.32, -57.98 127.51 3.40 29
12 08/11/2016 18:23:14 -69.31, 81.81 125.73 08/11/2016 18:24:22 -69.18, 83.70 125.89 76.03 68
13 08/11/2016 19:13:43 68.41,-109.66
